NJ3J Weather Reports


time (UTC)temp
C
wind
direction
speed
KPH
gust
KPH
rain 1hr
cm
rain 24hr
cm
rain mn
cm
humidity
%
barometer
mb
20260510225518 21 44 4.8 11.3 0.00 0.00 0.00 59 1016.9
20260510225038 21 49 4.8 11.3 0.00 0.00 0.00 59 1016.8
20260510224538 21 56 4.8 12.9 0.00 0.00 0.00 58 1016.8
20260510224018 21 26 4.8 9.7 0.00 0.00 0.00 58 1016.8
20260510223518 21 31 4.8 9.7 0.00 0.00 0.00 58 1016.8
20260510223018 21 12 4.8 12.9 0.00 0.00 0.00 59 1016.7
20260510222519 21 32 3.2 11.3 0.00 0.00 0.00 59 1016.7
20260510222016 22 9 4.8 9.7 0.00 0.00 0.00 58 1016.6
20260510221515 22 15 4.8 12.9 0.00 0.00 0.00 58 1016.6
20260510221016 22 349 4.8 12.9 0.00 0.00 0.00 59 1016.6
20260510220516 22 6 4.8 16.1 0.00 0.00 0.00 59 1016.6
20260510220016 22 356 4.8 12.9 0.00 0.00 0.00 61 1016.6
20260510215516 22 50 4.8 11.3 0.00 0.00 0.00 61 1016.5
20260510215016 22 21 3.2 8.0 0.00 0.00 0.00 62 1016.6
20260510214536 22 54 4.8 11.3 0.00 0.00 0.00 62 1016.5
20260510214036 22 53 4.8 11.3 0.00 0.00 0.00 62 1016.5
20260510213516 22 42 3.2 12.9 0.00 0.00 0.00 63 1016.5
20260510213016 23 61 6.4 12.9 0.00 0.00 0.00 62 1016.5
20260510212516 23 58 4.8 14.5 0.00 0.00 0.00 64 1016.4
20260510212037 23 41 4.8 14.5 0.00 0.00 0.00 65 1016.4
20260510211517 23 43 4.8 11.3 0.00 0.00 0.00 65 1016.3
20260510211017 24 14 3.2 11.3 0.00 0.00 0.00 65 1016.2
20260510210517 24 57 4.8 14.5 0.00 0.00 0.00 66 1016.2
20260510210017 24 44 4.8 12.9 0.00 0.00 0.00 66 1016.2
20260510205517 25 51 4.8 12.9 0.00 0.00 0.00 65 1016.2
20260510205037 25 11 6.4 16.1 0.00 0.00 0.00 64 1016.2
20260510204537 26 43 4.8 12.9 0.00 0.00 0.00 62 1016.1
20260510204017 26 359 4.8 9.7 0.00 0.00 0.00 58 1016.0
20260510203517 26 3 4.8 11.3 0.00 0.00 0.00 55 1015.9
20260510203017 26 333 4.8 9.7 0.00 0.00 0.00 54 1015.9
20260510202517 26 264 3.2 6.4 0.00 0.00 0.00 53 1016.1
20260510202017 26 338 3.2 9.7 0.00 0.00 0.00 54 1016.2
20260510201517 26 339 3.2 11.3 0.00 0.00 0.00 53 1016.0
20260510201018 26 312 3.2 8.0 0.00 0.00 0.00 54 1016.0
20260510200517 26 291 3.2 8.0 0.00 0.00 0.00 53 1016.1
20260510200018 26 6 3.2 8.0 0.00 0.00 0.00 55 1016.2
20260510195518 26 320 4.8 16.1 0.00 0.00 0.00 55 1016.1
20260510195038 26 311 3.2 12.9 0.00 0.00 0.00 55 1016.2
20260510194518 26 9 3.2 8.0 0.00 0.00 0.00 55 1016.3
20260510194018 26 66 3.2 8.0 0.00 0.00 0.00 55 1016.2
20260510193518 26 310 3.2 8.0 0.00 0.00 0.00 56 1016.2
20260510193015 26 37 3.2 11.3 0.00 0.00 0.00 54 1016.3
20260510192516 26 78 3.2 6.4 0.00 0.00 0.00 53 1016.2
20260510192015 26 336 3.2 9.7 0.00 0.00 0.00 55 1016.1
20260510191515 26 312 1.6 6.4 0.00 0.00 0.00 53 1016.2
20260510191015 26 14 3.2 8.0 0.00 0.00 0.00 53 1016.2
20260510190516 26 348 3.2 6.4 0.00 0.00 0.00 52 1016.2
20260510190016 26 327 3.2 8.0 0.00 0.00 0.00 54 1016.2
20260510185516 26 351 3.2 8.0 0.00 0.00 0.00 53 1016.1
20260510185016 26 351 1.6 4.8 0.00 0.00 0.00 53 1016.1
20260510184516 26 263 3.2 8.0 0.00 0.00 0.00 55 1016.1
20260510184036 25 1 3.2 9.7 0.00 0.00 0.00 55 1016.0
20260510183516 25 19 3.2 6.4 0.00 0.00 0.00 56 1016.1
20260510183016 25 64 3.2 9.7 0.00 0.00 0.00 55 1016.0
20260510182516 25 22 3.2 8.0 0.00 0.00 0.00 56 1016.1
20260510182016 25 29 3.2 9.7 0.00 0.00 0.00 56 1016.3
20260510181517 25 327 3.2 9.7 0.00 0.00 0.00 56 1016.2
20260510181037 25 344 3.2 8.0 0.00 0.00 0.00 56 1016.1
20260510180517 25 296 4.8 9.7 0.00 0.00 0.00 56 1016.1
20260510180037 25 322 1.6 4.8 0.00 0.00 0.00 55 1016.1
20260510175517 25 276 4.8 9.7 0.00 0.00 0.00 55 1016.2
20260510175017 25 49 3.2 8.0 0.00 0.00 0.00 56 1016.2
20260510174517 25 351 3.2 8.0 0.00 0.00 0.00 56 1016.2
20260510174017 25 28 3.2 6.4 0.00 0.00 0.00 57 1016.3
20260510173537 25 82 3.2 9.7 0.00 0.00 0.00 57 1016.3
20260510173017 25 55 4.8 9.7 0.00 0.00 0.00 57 1016.4
20260510172517 25 348 4.8 9.7 0.00 0.00 0.00 58 1016.5
20260510172018 24 13 3.2 8.0 0.00 0.00 0.00 58 1016.6
20260510171538 25 298 4.8 11.3 0.00 0.00 0.00 58 1016.5
20260510171018 25 306 3.2 9.7 0.00 0.00 0.00 58 1016.6
20260510170518 25 12 3.2 8.0 0.00 0.00 0.00 59 1016.6
20260510170017 25 311 3.2 6.4 0.00 0.00 0.00 60 1016.6
20260510165518 25 3 3.2 9.7 0.00 0.00 0.00 60 1016.6
20260510165018 25 24 3.2 8.0 0.00 0.00 0.00 60 1016.6
20260510164518 25 18 3.2 8.0 0.00 0.00 0.00 60 1016.6
20260510164018 25 332 3.2 8.0 0.00 0.00 0.00 60 1016.5
20260510163518 25 349 4.8 9.7 0.00 0.00 0.00 59 1016.5
20260510163018 25 23 3.2 8.0 0.00 0.00 0.00 59 1016.3
20260510162518 25 3 3.2 8.0 0.00 0.00 0.00 59 1016.4
20260510162018 25 314 3.2 9.7 0.00 0.00 0.00 58 1016.4
20260510161515 25 301 3.2 6.4 0.00 0.00 0.00 55 1016.4
20260510161015 26 337 3.2 6.4 0.00 0.00 0.00 52 1016.3
20260510160516 25 332 3.2 6.4 0.00 0.00 0.00 51 1016.1
20260510160016 25 257 4.8 14.5 0.00 0.00 0.00 50 1016.1
20260510155516 25 263 4.8 12.9 0.00 0.00 0.00 50 1016.1
20260510155016 25 278 3.2 8.0 0.00 0.00 0.00 50 1016.0
20260510154516 25 323 4.8 11.3 0.00 0.00 0.00 50 1015.9
20260510154056 25 355 3.2 8.0 0.00 0.00 0.00 52 1015.9
20260510153516 25 254 6.4 19.3 0.00 0.00 0.00 51 1015.9
20260510153016 25 267 6.4 12.9 0.00 0.00 0.00 51 1015.8
20260510152517 25 274 6.4 12.9 0.00 0.00 0.00 51 1015.8
20260510152017 25 268 6.4 12.9 0.00 0.00 0.00 50 1015.7
20260510151516 25 269 4.8 9.7 0.00 0.00 0.00 50 1015.7
20260510151017 25 263 4.8 12.9 0.00 0.00 0.00 50 1015.7
20260510150517 25 273 4.8 9.7 0.00 0.00 0.00 50 1015.5
20260510150017 25 260 3.2 9.7 0.00 0.00 0.00 50 1015.5
20260510145517 25 259 4.8 9.7 0.00 0.00 0.00 50 1015.5
20260510145017 24 246 6.4 11.3 0.00 0.00 0.00 50 1015.4
20260510144517 24 262 3.2 8.0 0.00 0.00 0.00 53 1015.3
20260510144057 24 228 3.2 8.0 0.00 0.00 0.00 53 1015.3
20260510143517 23 200 3.2 6.4 0.00 0.00 0.00 55 1015.2
20260510143017 23 261 3.2 6.4 0.00 0.00 0.00 55 1015.3
20260510142517 23 262 3.2 9.7 0.00 0.00 0.00 56 1015.3
20260510142038 23 243 3.2 6.4 0.00 0.00 0.00 56 1015.3
20260510141518 23 215 1.6 4.8 0.00 0.00 0.00 59 1015.3
20260510141018 22 246 3.2 6.4 0.00 0.00 0.00 59 1015.2
20260510140517 22 197 1.6 4.8 0.00 0.00 0.00 60 1015.2
20260510140038 22 210 1.6 6.4 0.00 0.00 0.00 63 1015.3
20260510135518 22 248 3.2 8.0 0.00 0.00 0.00 63 1015.4
20260510135018 21 173 1.6 8.0 0.00 0.00 0.00 65 1015.4
20260510134518 21 216 1.6 6.4 0.00 0.00 0.00 66 1015.5
20260510134018 21 251 3.2 6.4 0.00 0.00 0.00 66 1015.5
20260510133518 20 152 1.6 4.8 0.00 0.00 0.00 67 1015.4
20260510133018 20 146 1.6 3.2 0.00 0.00 0.00 69 1015.4
20260510132515 19 149 1.6 4.8 0.00 0.00 0.00 69 1015.4
20260510132018 19 145 1.6 3.2 0.00 0.00 0.00 70 1015.3
20260510131516 18 176 1.6 4.8 0.00 0.00 0.00 71 1015.3
20260510131015 18 146 1.6 4.8 0.00 0.00 0.00 72 1015.3
20260510130516 18 146 1.6 3.2 0.00 0.00 0.00 72 1015.3
20260510130016 17 146 1.6 6.4 0.00 0.00 0.00 72 1015.3
20260510125516 17 169 1.6 3.2 0.00 0.00 0.00 72 1015.3
20260510125018 17 149 1.6 3.2 0.00 0.00 0.00 73 1015.3
20260510124516 16 152 1.6 3.2 0.00 0.00 0.00 74 1015.3
20260510124016 16 154 1.6 3.2 0.00 0.00 0.00 75 1015.3
20260510123516 16 157 1.6 3.2 0.00 0.00 0.00 75 1015.3
20260510123016 16 158 1.6 4.8 0.00 0.00 0.00 76 1015.3
20260510122516 15 159 1.6 4.8 0.00 0.00 0.00 77 1015.3
20260510122037 15 195 1.6 3.2 0.00 0.00 0.00 77 1015.2
20260510121517 15 159 1.6 3.2 0.00 0.00 0.00 78 1015.1
20260510121016 14 173 1.6 3.2 0.00 0.00 0.00 80 1015.0
20260510120517 13 157 1.6 3.2 0.00 0.00 0.00 81 1015.1
20260510120016 13 167 0.0 3.2 0.00 0.00 0.00 83 1015.1
20260510115517 13 172 0.0 3.2 0.00 0.00 0.00 84 1015.0
20260510115037 13 156 1.6 4.8 0.00 0.00 0.00 85 1014.9
20260510114537 12 170 1.6 4.8 0.00 0.00 0.00 85 1014.8
20260510114017 12 156 1.6 3.2 0.00 0.00 0.00 85 1014.7
20260510113517 12 161 1.6 4.8 0.00 0.00 0.00 85 1014.7
20260510113017 12 146 0.0 1.6 0.00 0.00 0.00 87 1014.6
20260510112537 12 132 0.0 1.6 0.00 0.00 0.00 87 1014.6
20260510112017 12 167 0.0 3.2 0.00 0.00 0.00 87 1014.7
20260510111517 12 196 0.0 1.6 0.00 0.00 0.00 85 1014.6
20260510111017 12 153 1.6 3.2 0.00 0.00 0.00 84 1014.5
20260510110517 12 147 1.6 4.8 0.00 0.00 0.00 83 1014.5
20260510110018 12 153 1.6 6.4 0.00 0.00 0.00 83 1014.6
20260510105518 12 146 1.6 4.8 0.00 0.00 0.00 83 1014.6
20260510105018 12 148 0.0 3.2 0.00 0.00 0.00 83 1014.6
20260510104537 13 160 1.6 4.8 0.00 0.00 0.00 82 1014.5
20260510104058 13 186 0.0 3.2 0.00 0.00 0.00 80 1014.5
20260510103518 13 155 3.2 6.4 0.00 0.00 0.00 79 1014.3
20260510103019 13 66 0.0 1.6 0.00 0.00 0.00 78 1014.5
20260510102518 14 153 1.6 4.8 0.00 0.00 0.00 77 1014.3
20260510102019 13 119 1.6 4.8 0.00 0.00 0.00 78 1014.4
20260510101518 13 52 1.6 4.8 0.00 0.00 0.00 78 1014.2
20260510101018 13 161 1.6 3.2 0.00 0.00 0.00 77 1014.1
20260510100516 12 109 1.6 9.7 0.00 0.00 0.00 78 1014.1
20260510100056 11 9 3.2 11.3 0.00 0.00 0.00 86 1014.3
20260510095515 11 332 3.2 6.4 0.00 0.00 0.00 90 1014.1
20260510095016 11 354 0.0 1.6 0.00 0.00 0.00 89 1013.9
20260510094516 11 186 0.0 3.2 0.00 0.00 0.00 89 1013.8
20260510094036 11 307 0.0 1.6 0.00 0.00 0.00 88 1013.7
20260510093516 11 159 0.0 3.2 0.00 0.00 0.00 88 1013.6
20260510093016 11 156 0.0 3.2 0.00 0.00 0.00 89 1013.7
20260510092516 11 140 0.0 1.6 0.00 0.00 0.00 88 1013.7
20260510092036 12 204 0.0 1.6 0.00 0.00 0.00 87 1013.7
20260510091516 12 237 0.0 1.6 0.00 0.00 0.00 87 1013.6
20260510091016 12 217 0.0 3.2 0.00 0.00 0.00 86 1013.6
20260510090517 12 199 0.0 3.2 0.00 0.00 0.00 86 1013.5
20260510090016 12 251 0.0 3.2 0.00 0.00 0.00 86 1013.4
20260510085557 12 255 1.6 3.2 0.00 0.00 0.00 86 1013.4
20260510085017 12 167 0.0 3.2 0.00 0.00 0.00 85 1013.3
20260510084517 12 162 1.6 4.8 0.00 0.00 0.00 86 1013.2
20260510084017 12 201 0.0 1.6 0.00 0.00 0.00 87 1013.2
20260510083517 12 160 0.0 1.6 0.00 0.00 0.00 86 1013.1
20260510083017 12 256 0.0 1.6 0.00 0.00 0.00 86 1013.1
20260510082537 12 139 0.0 1.6 0.00 0.00 0.00 86 1013.1
20260510082017 12 192 0.0 3.2 0.00 0.00 0.00 85 1013.1
20260510081517 12 170 0.0 1.6 0.00 0.00 0.00 84 1012.9
20260510081018 12 138 1.6 3.2 0.00 0.00 0.00 86 1012.9
20260510080538 12 171 0.0 3.2 0.00 0.00 0.00 87 1013.0
20260510080037 12 158 0.0 3.2 0.00 0.00 0.00 86 1012.9
20260510075518 12 162 0.0 3.2 0.00 0.00 0.00 86 1012.9
20260510075018 13 136 0.0 3.2 0.00 0.00 0.00 86 1012.9
20260510074518 13 148 0.0 3.2 0.00 0.00 0.00 85 1013.0
20260510074018 13 193 0.0 3.2 0.00 0.00 0.00 85 1013.0
20260510073518 13 171 0.0 3.2 0.00 0.00 0.00 84 1012.9
20260510073017 12 176 1.6 4.8 0.00 0.00 0.00 83 1012.9
20260510072518 12 160 0.0 3.2 0.00 0.00 0.00 84 1012.9
20260510072038 12 163 1.6 4.8 0.00 0.00 0.00 86 1013.1
20260510071518 12 154 0.0 1.6 0.00 0.00 0.00 86 1013.1
20260510071036 12 200 0.0 1.6 0.00 0.00 0.00 86 1013.0
20260510070518 12 145 0.0 1.6 0.00 0.00 0.00 86 1012.9
20260510070015 12 151 0.0 3.2 0.00 0.00 0.00 85 1012.9
20260510065538 13 155 0.0 1.6 0.00 0.00 0.00 85 1012.8
20260510065036 13 152 0.0 1.6 0.00 0.00 0.00 85 1012.8
20260510064516 13 236 0.0 1.6 0.00 0.00 0.00 84 1012.8
20260510064015 13 163 0.0 3.2 0.00 0.00 0.00 83 1012.7
20260510063516 13 146 0.0 3.2 0.00 0.00 0.00 84 1012.7
20260510063016 13 147 0.0 3.2 0.00 0.00 0.00 84 1012.8
20260510062516 13 140 0.0 3.2 0.00 0.00 0.00 84 1012.8
20260510062016 13 170 0.0 3.2 0.00 0.00 0.00 84 1012.9
20260510061516 13 179 0.0 3.2 0.00 0.00 0.00 83 1012.9
20260510061016 13 164 0.0 3.2 0.00 0.00 0.00 83 1012.9
20260510060516 13 151 0.0 3.2 0.00 0.00 0.00 83 1012.9
20260510060016 13 151 0.0 3.2 0.00 0.00 0.00 82 1012.9
20260510055516 13 197 0.0 1.6 0.00 0.00 0.00 82 1012.8
20260510055017 13 194 0.0 1.6 0.00 0.00 0.00 83 1012.8
20260510054517 14 138 0.0 3.2 0.00 0.00 0.00 82 1012.8
20260510054017 14 145 0.0 1.6 0.00 0.00 0.00 81 1012.8
20260510053537 14 156 0.0 1.6 0.00 0.00 0.00 81 1012.8
20260510053017 14 175 0.0 1.6 0.00 0.00 0.00 80 1012.7
20260510052537 14 158 1.6 3.2 0.00 0.00 0.00 80 1012.7
20260510052017 14 93 0.0 3.2 0.00 0.00 0.00 80 1012.6
20260510051517 14 104 0.0 1.6 0.00 0.00 0.00 81 1012.6
20260510051017 14 99 0.0 1.6 0.00 0.00 0.00 81 1012.6
20260510050537 14 183 0.0 3.2 0.00 0.00 0.00 81 1012.6
20260510050018 14 158 0.0 3.2 0.00 0.00 0.00 82 1012.5
20260510045517 14 162 0.0 1.6 0.00 0.00 0.00 83 1012.5
20260510045017 14 143 0.0 1.6 0.00 0.00 0.00 82 1012.5
20260510044538 14 120 0.0 1.6 0.00 0.00 0.00 82 1012.5
20260510044018 14 101 0.0 3.2 0.00 0.00 0.00 81 1012.5
20260510043518 14 76 0.0 1.6 0.00 0.00 0.00 81 1012.6
20260510043018 13 91 0.0 1.6 0.00 0.00 0.00 81 1012.6
20260510042518 13 98 0.0 1.6 0.00 0.00 0.00 81 1012.6
20260510042018 13 108 0.0 3.2 0.00 0.00 0.00 81 1012.6
20260510041518 13 123 0.0 1.6 0.00 0.00 0.00 82 1012.6
20260510041038 13 91 0.0 1.6 0.00 0.00 0.00 84 1012.6
20260510040538 14 136 0.0 1.6 0.00 0.00 0.00 83 1012.7
20260510040018 14 140 0.0 1.6 0.00 0.00 0.00 83 1012.7
20260510035538 14 183 0.0 1.6 0.00 0.00 0.00 83 1012.7
20260510035035 14 160 0.0 1.6 0.00 0.00 0.00 83 1012.8
20260510034516 14 143 0.0 1.6 0.00 0.00 0.00 82 1012.8
20260510034016 15 183 0.0 1.6 0.00 0.00 0.00 82 1012.8
20260510033516 15 238 0.0 1.6 0.00 0.00 0.00 82 1012.8
20260510033016 15 144 0.0 1.6 0.00 0.00 0.00 81 1012.8
20260510032516 15 152 0.0 1.6 0.00 0.00 0.00 80 1012.8
20260510032016 15 178 0.0 3.2 0.00 0.00 0.00 79 1012.8
20260510031516 15 195 0.0 1.6 0.00 0.00 0.00 79 1012.8
20260510031016 15 131 0.0 3.2 0.00 0.00 0.00 78 1012.8
20260510030517 15 152 1.6 1.6 0.00 0.00 0.00 78 1012.7
20260510030016 15 126 0.0 3.2 0.00 0.00 0.00 78 1012.7
20260510025516 16 183 0.0 1.6 0.00 0.00 0.00 77 1012.7
20260510025036 16 138 0.0 3.2 0.00 0.00 0.00 77 1012.6
20260510024516 16 146 1.6 3.2 0.00 0.00 0.00 76 1012.6
20260510024017 16 153 0.0 3.2 0.00 0.00 0.00 75 1012.6
20260510023538 16 150 0.0 3.2 0.00 0.00 0.00 74 1012.5
20260510023017 16 169 0.0 3.2 0.00 0.00 0.00 73 1012.5
20260510022517 16 227 0.0 3.2 0.00 0.00 0.00 73 1012.4
20260510022017 16 180 0.0 1.6 0.00 0.00 0.00 73 1012.4
20260510021517 16 138 0.0 1.6 0.00 0.00 0.00 72 1012.4
20260510021037 17 142 0.0 3.2 0.00 0.00 0.00 71 1012.4
20260510020517 17 134 0.0 1.6 0.00 0.00 0.00 69 1012.3
20260510020017 17 126 0.0 1.6 0.00 0.00 0.00 69 1012.2
20260510015557 17 88 0.0 1.6 0.00 0.00 0.00 68 1012.1
20260510015017 17 121 0.0 1.6 0.00 0.00 0.00 67 1012.0
20260510014558 18 119 0.0 1.6 0.00 0.00 0.00 66 1011.9
20260510014017 18 89 0.0 1.6 0.00 0.00 0.00 66 1011.8
20260510013558 18 95 0.0 1.6 0.00 0.00 0.00 65 1011.8
20260510013018 19 109 0.0 1.6 0.00 0.00 0.00 64 1011.8
20260510012518 19 115 0.0 3.2 0.00 0.00 0.00 63 1011.7
20260510012018 20 132 0.0 1.6 0.00 0.00 0.00 62 1011.6
20260510011518 20 144 0.0 3.2 0.00 0.00 0.00 61 1011.6
20260510011018 20 123 0.0 1.6 0.00 0.00 0.00 59 1011.5
20260510010518 21 102 0.0 0.0 0.00 0.00 0.00 58 1011.4
20260510010019 21 254 0.0 1.6 0.00 0.00 0.00 56 1011.4
20260510005518 22 110 0.0 1.6 0.00 0.00 0.00 54 1011.3
20260510005018 22 157 0.0 1.6 0.00 0.00 0.00 52 1011.3
20260510004515 23 118 0.0 3.2 0.00 0.00 0.00 50 1011.2
20260510004016 24 125 0.0 1.6 0.00 0.00 0.00 49 1011.2
20260510003516 25 123 0.0 1.6 0.00 0.00 0.00 47 1011.1
20260510003016 25 143 0.0 1.6 0.00 0.00 0.00 45 1011.0
20260510002516 25 158 0.0 1.6 0.00 0.00 0.00 43 1010.9
20260510002016 26 176 0.0 3.2 0.00 0.00 0.00 42 1010.8
20260510001516 26 176 0.0 1.6 0.00 0.00 0.00 42 1010.8
20260510001016 26 200 1.6 4.8 0.00 0.00 0.00 41 1010.7
20260510000517 26 187 1.6 4.8 0.00 0.00 0.00 40 1010.7
20260510000016 26 200 1.6 3.2 0.00 0.00 0.00 40 1010.6
20260509235522 26 208 1.6 6.4 0.00 0.00 0.00 39 1010.5
20260509235017 26 205 1.6 4.8 0.00 0.00 0.00 39 1010.4
20260509234517 26 211 1.6 4.8 0.00 0.00 0.00 39 1010.3
20260509234017 26 195 1.6 4.8 0.00 0.00 0.00 38 1010.3
20260509233517 27 259 1.6 6.4 0.00 0.00 0.00 37 1010.3
20260509233016 27 274 1.6 3.2 0.00 0.00 0.00 37 1010.4
20260509232517 26 218 1.6 4.8 0.00 0.00 0.00 37 1010.4
20260509232037 26 237 3.2 6.4 0.00 0.00 0.00 38 1010.4
20260509231537 27 253 3.2 6.4 0.00 0.00 0.00 38 1010.3
20260509231017 27 257 4.8 9.7 0.00 0.00 0.00 38 1010.3
20260509230518 27 232 3.2 6.4 0.00 0.00 0.00 37 1010.3